Weather History for New Haven, CT

Change the Weather History Date:

Monday, November 19, 2012

  Actual Average Record
Temperature  
Mean Temperature 42 °F -  
Max Temperature 50 °F 49 °F 66 °F (1987)
Min Temperature 33 °F 35 °F 21 °F (2005)
Degree Days  
Heating Degree Days 24    
Moisture  
Dew Point 31 °F    
Average Humidity 72    
Maximum Humidity 82    
Minimum Humidity 56    
Precipitation  
Precipitation 0.00 in - - ()
Sea Level Pressure  
Sea Level Pressure 30.42 in    
Wind  
Wind Speed 9 mph (North)    
Max Wind Speed 16 mph    
Max Gust Speed -    
Visibility 10 miles    
Events      
Averages and records for this station are not official NWS values.
T = Trace of Precipitation, MM = Missing Value Source: NWS Daily Summary

Daily Weather History Graph

Daily Weather History Graph

Search for Another Location

Airport:

Trip Planner

Search our weather history database for the weather conditions in past years. The results will help you decide how hot, cold, wet, or windy it might be!

Date:

Astronomy

Nov. 19, 2012 Rise Set
Actual Time 6:44 AM EST 4:28 PM EST
Civil Twilight 6:14 AM EST 4:58 PM EST
Nautical Twilight 5:41 AM EST 5:32 PM EST
Astronomical Twilight 5:08 AM EST 6:05 PM EST
Moon 11:44 AM EST (11/19) 10:54 PM EST (11/19)
Length of Visible Light 10h 43m
Length of Day
9h 43m
Waxing Crescent, 40% of the Moon is Illuminated
Nov 19
Waxing Crescent
Nov 20
First Quarter
Nov 28
Full
Dec 6
Last Quarter
Dec 13
New

Hourly Weather History & Observations

Time (EST) Temp. Windchill Dew Point Humidity Pressure Visibility Wind Dir Wind Speed Gust Speed Precip Events Conditions
12:53 AM 36.0 °F 29.6 °F 28.9 °F 76% 30.58 in 10.0 mi North 8.1 mph - N/A   Clear
1:53 AM 35.1 °F 28.6 °F 28.9 °F 78% 30.57 in 10.0 mi North 8.1 mph - N/A   Clear
2:53 AM 34.0 °F 28.8 °F 28.0 °F 79% 30.55 in 10.0 mi North 5.8 mph - N/A   Clear
3:53 AM 34.0 °F 26.0 °F 28.0 °F 79% 30.53 in 10.0 mi North 10.4 mph - N/A   Clear
4:53 AM 34.0 °F 25.5 °F 28.0 °F 79% 30.53 in 10.0 mi North 11.5 mph - N/A   Clear
5:53 AM 34.0 °F 25.0 °F 28.0 °F 79% 30.52 in 10.0 mi North 12.7 mph - N/A   Clear
6:53 AM 33.1 °F 23.9 °F 27.0 °F 78% 30.52 in 10.0 mi North 12.7 mph - N/A   Mostly Cloudy
7:53 AM 34.0 °F 25.5 °F 28.0 °F 79% 30.51 in 10.0 mi North 11.5 mph - N/A   Mostly Cloudy
8:39 AM 35.6 °F 26.6 °F 28.4 °F 75% 30.50 in 10.0 mi North 13.8 mph - N/A   Mostly Cloudy
8:53 AM 37.0 °F 27.7 °F 28.9 °F 73% 30.50 in 10.0 mi North 16.1 mph - N/A   Mostly Cloudy
9:53 AM 39.9 °F 33.4 °F 30.0 °F 68% 30.48 in 10.0 mi North 10.4 mph - N/A   Mostly Cloudy
10:53 AM 44.1 °F 37.7 °F 30.9 °F 60% 30.46 in 10.0 mi NNE 12.7 mph - N/A   Mostly Cloudy
11:53 AM 46.9 °F - 33.1 °F 59% 30.42 in 10.0 mi North 15.0 mph - N/A   Mostly Cloudy
12:53 PM 48.0 °F - 34.0 °F 58% 30.39 in 10.0 mi North 10.4 mph - N/A   Mostly Cloudy
1:53 PM 48.9 °F - 34.0 °F 56% 30.38 in 10.0 mi North 9.2 mph - N/A   Mostly Cloudy
2:53 PM 50.0 °F - 35.1 °F 57% 30.36 in 10.0 mi North 10.4 mph - N/A   Mostly Cloudy
3:53 PM 48.9 °F - 35.1 °F 59% 30.35 in 10.0 mi North 5.8 mph - N/A   Mostly Cloudy
4:53 PM 46.9 °F - 35.1 °F 63% 30.35 in 10.0 mi North 6.9 mph - N/A   Overcast
5:40 PM 44.6 °F 41.4 °F 33.8 °F 66% 30.34 in 10.0 mi North 5.8 mph - N/A   Scattered Clouds
5:53 PM 43.0 °F 39.5 °F 33.1 °F 68% 30.34 in 10.0 mi North 5.8 mph - N/A   Clear
6:53 PM 41.0 °F 38.0 °F 33.1 °F 73% 30.33 in 10.0 mi North 4.6 mph - N/A   Clear
7:53 PM 36.0 °F 32.1 °F 30.0 °F 79% 30.31 in 10.0 mi NNE 4.6 mph - N/A   Clear
8:53 PM 39.9 °F 34.5 °F 33.1 °F 77% 30.30 in 10.0 mi North 8.1 mph - N/A   Clear
9:53 PM 36.0 °F 32.1 °F 30.9 °F 82% 30.30 in 10.0 mi North 4.6 mph - N/A   Clear
10:53 PM 34.0 °F - 28.9 °F 82% 30.27 in 10.0 mi Calm Calm - N/A   Clear
11:53 PM 34.0 °F 31.0 °F 28.9 °F 82% 30.27 in 10.0 mi NNE 3.5 mph - N/A   Clear